STARLINK-32945, 63118

Orbit data source: Space-Track

STARLINK-32945, 63118 is a payload satellite owned by SpaceX/Seattle (US) in LEO that was launched on Thu, 27 Feb 2025 UTC via an FALCON 9 launch vehicle from the Air Force Eastern Test Range (AFETR). Payload-class satellites include a variety of spacecraft equipped with specific instruments for various scientific and technological missions. These include communications satellites like Starlink; space stations such as the ISS; scientific satellites like the Hubble; Earth observation satellites from companies like Planet Labs, Umbra, and HawkEye 360; GPS; miniature CubeSats for education and research; and military/defense satellites.

Loading next visibility...
Identifier
63118, 2025-039Q
Orbit
LEO
Last TLE update
15 hours ago
Origin
Manufacturer
SpaceX/Seattle
Mission
Operational Commercial Communications
Bus & Motor
STARLINK V2M, Unknown motor
Mass
730 kg wet, ~700 kg dry
Launch date (UTC)
2025-02-27 (4 months ago)
Launch vehicle
FALCON 9
Launch site
Air Force Eastern Test Range (AFETR)
Object type
Payload
Rocket body
Debris
Shape & HBR
Box + 2 Pan, 29 m
Radar Cross Section
33.884 m², Large (>1 m²)

Expand to show TLE details & history

TLE from 15 hours ago
0 STARLINK-32945
1 63118U 25039Q   25181.78818648  .00008835  00000-0  33008-3 0  9996
2 63118  43.0032 355.2210 0001229 264.3176  95.7536 15.27591006 19544
Epoch: 2025-06-30T18:54Z
TLE epoch observation values (Epoch: 2025-06-30T18:54:59.311Z)
Latitude
-0°
Longitude
152.3809°
Altitude
482.877 km
Speed
7.626 km/s
True Right ascension
23h 40m 53s
True Declination
0° 00' 00"
Sunlit
Object was in daylight at epoch
Visualization orbit readout
Latitude
33.86069°
Longitude
-76.75506°
Altitude
484.898 km
Speed
7.628 km/s
Apparent Right ascension
08h 47m 02s
Apparent Declination
-1° 27' 04"
Sunlit
Object is in daylight
Visualization observer readout
Local Sidereal Time
21:13:29
Azimuth
10.557° NNE
Elevation
-51.067°
Doppler factor
1
Orbital elements
Apogee altitude
485.804 km
Perigee altitude
484.117 km
Semi-major axis
6,863.098 km
Eccentricity
0.00012
Inclination
43.0032°
RAAN
355.221°
Arg. of periapsis
264.3176°
True anomaly
Unknown
Mean anomaly
95.7536°
Eccentric anomaly
Unknown
Mean motion
3.81736 °/min
Orbital period
94.31 mins
BSTAR
0.00033008
Loading maneuver chart data...
Loading SW <> Apogee altitude chart data...
Loading historical data...
Loading historical data...
Loading historical data...
Loading historical data...
Loading historical data...
Loading historical data...
Loading historical data...

STARLINK-32945 Visibility forecast

Observer location: undefined°, undefined°

Span
Click to sort rows by Start time (UTC) header in descending order
Start Az.
Max El. time (UTC)
Max El. Az.
Max El.
End time (UTC)
End Az.
4 mins2025-07-01 13:56:11.394Z173.165° S2025-07-01 13:58:11.394Z135.802° SSE15.864°2025-07-01 14:00:11.394Z103.065° ESE
5 mins2025-07-01 15:34:11.394Z238.807° WSW2025-07-01 15:36:11.394Z184.376° SSW43.365°2025-07-01 15:39:11.394Z75.372° E
5 mins2025-07-01 17:13:11.394Z285.138° WNW2025-07-01 17:15:11.394Z339.317° N38.176°2025-07-01 17:18:11.394Z69.653° E
6 mins2025-07-01 18:52:11.394Z292.715° NW2025-07-01 18:54:11.394Z326.838° NNW41.2°2025-07-01 18:58:11.394Z97.591° ESE
5 mins2025-07-01 20:31:11.394Z266.947° W2025-07-01 20:33:11.394Z220.057° SW29.698°2025-07-01 20:36:11.394Z148.214° SSE
|